1484690400.44,8917,4.19,73554.5,-16.69,-44.87,-45.13,0,*53
1484690401.72,8918,4.19,73554.8,-16.73,-44.79,-44.93,0,*5F
1484690402.96,8919,4.19,73552.5,-16.73,-44.79,-45.21,0,*56
1484690404.22,8920,4.19,73552.5,-16.73,-44.73,-44.99,0,*54
1484690405.5,8921,4.19,73556.8,-16.73,-44.47,-44.67,0,*53
1484690406.75,8922,4.19,73554.8,-16.73,-44.07,-44.47,0,*56
1484690408.03,8923,4.19,73552.5,-16.73,-44.33,-44.67,0,*52
1484690409.26,8924,4.19,73554.0,-16.69,-44.61,-44.87,0,*57
1484690410.52,8925,4.19,73554.0,-16.69,-44.27,-44.67,0,*5A
1484690411.8,8926,4.19,73552.0,-16.69,-44.47,-44.73,0,*5A
1484690413.06,8927,4.19,73552.0,-16.69,-44.61,-45.07,0,*5D
1484690414.3,8928,4.19,73554.5,-16.69,-44.27,-44.61,0,*51
1484690415.58,8929,4.19,73552.0,-16.69,-44.21,-44.67,0,*50
1484690416.82,8930,4.19,73556.3,-16.67,-44.61,-44.73,0,*57
1484690418.05,8931,4.19,73548.8,-16.67,-44.21,-44.61,0,*51
1484690419.34,8932,4.19,73554.5,-16.69,-44.47,-44.73,0,*5F
1484690420.6,8933,4.19,73550.3,-16.69,-44.87,-45.07,0,*50
1484690421.89,8934,4.19,73552.5,-16.69,-44.47,-44.73,0,*59
1484690423.14,8935,4.19,73558.5,-16.69,-44.41,-44.67,0,*5B
1484690424.39,8936,4.19,73554.5,-16.69,-44.41,-44.67,0,*58
1484690425.65,8937,4.19,73552.0,-16.69,-44.67,-44.87,0,*53
1484690426.91,8938,4.19,73552.3,-16.67,-44.73,-44.93,0,*52
1484690428.15,8939,4.19,73552.5,-16.67,-44.61,-44.73,0,*5E
1484690429.4,8940,4.19,73552.3,-16.69,-44.61,-44.67,0,*5B
1484690430.62,8941,4.19,73552.3,-16.67,-44.61,-44.87,0,*5A
1484690431.87,8942,4.19,73554.0,-16.69,-44.61,-44.73,0,*5C
1484690433.14,8943,4.19,73552.5,-16.67,-44.47,-44.73,0,*57
1484690434.35,8944,4.19,73556.0,-16.67,-44.27,-44.61,0,*55
1484690435.63,8945,4.19,73552.0,-16.69,-44.21,-44.47,0,*58
1484690436.86,8946,4.19,73558.5,-16.67,-44.27,-44.47,0,*53
1484690438.07,8947,4.19,73552.8,-16.67,-44.41,-44.61,0,*56
1484690439.31,8948,4.19,73550.5,-16.67,-44.61,-44.73,0,*58
1484690440.52,8949,4.19,73558.0,-16.67,-44.61,-44.87,0,*52
1484690441.73,8950,4.19,73552.5,-16.67,-44.61,-44.87,0,*5A
1484690443.02,8951,4.19,73552.3,-16.69,-44.67,-44.93,0,*56
1484690444.25,8952,4.19,73554.8,-16.67,-44.27,-44.47,0,*56
1484690445.51,8953,4.19,73554.3,-16.67,-44.47,-44.67,0,*53
1484690446.79,8954,4.19,73554.0,-16.69,-44.21,-44.47,0,*58
1484690448.02,8955,4.19,73554.5,-16.67,-44.01,-44.41,0,*53
1484690449.26,8956,4.19,73554.5,-16.67,-44.47,-44.87,0,*58
1484690450.49,8957,4.19,73556.3,-16.65,-44.61,-44.79,0,*5E
1484690451.74,8958,4.19,73554.3,-16.65,-44.13,-44.53,0,*5C
1484690452.99,8959,4.19,73552.5,-16.65,-44.13,-44.41,0,*5E
1484690454.24,8960,4.19,73556.5,-16.67,-44.47,-44.67,0,*53
1484690455.5,8961,4.19,73552.5,-16.65,-44.21,-44.53,0,*57
1484690456.75,8962,4.19,73554.3,-16.65,-44.13,-44.41,0,*56
1484690458.0,8963,4.19,73554.3,-16.65,-44.01,-44.41,0,*54
1484690459.25,8964,4.19,73552.3,-16.65,-44.13,-44.53,0,*53
1484690460.46,8965,4.19,73550.0,-16.63,-44.53,-44.79,0,*58
1484690461.69,8966,4.19,73552.0,-16.65,-44.61,-44.79,0,*5C
1484690462.94,8967,4.19,73552.3,-16.65,-44.13,-44.41,0,*53
1484690464.2,8968,4.19,73552.5,-16.63,-44.13,-44.33,0,*5F
1484690465.42,8969,4.19,73554.5,-16.65,-43.95,-44.41,0,*54
1484690466.65,8970,4.19,73548.3,-16.63,-44.41,-44.67,0,*50
1484690467.87,8971,4.19,73554.5,-16.63,-44.53,-44.67,0,*52
1484690469.08,8972,4.19,73552.0,-16.63,-44.61,-44.79,0,*5F
1484690470.29,8973,4.19,73556.0,-16.63,-44.61,-44.87,0,*5F
1484690471.5,8974,4.19,73552.5,-16.63,-44.61,-44.79,0,*59
1484690472.71,8975,4.19,73554.3,-16.63,-44.79,-44.87,0,*50
1484690473.94,8976,4.19,73554.5,-16.65,-44.41,-44.61,0,*56
1484690475.15,8977,4.19,73554.3,-16.63,-44.79,-44.99,0,*5D
1484690476.36,8978,4.19,73552.8,-16.63,-44.61,-44.87,0,*54
1484690477.6,8979,4.19,73554.5,-16.65,-44.79,-44.99,0,*55
1484690478.86,8980,4.19,73556.0,-16.63,-44.67,-45.07,0,*5C
1484690480.07,8981,4.19,73556.0,-16.63,-44.61,-44.87,0,*52
1484690481.29,8982,4.19,73556.3,-16.63,-44.33,-44.53,0,*5F
1484690482.5,8983,4.19,73552.5,-16.63,-44.41,-44.61,0,*5A
1484690483.73,8984,4.19,73552.5,-16.63,-44.67,-44.87,0,*51
1484690484.96,8985,4.19,73554.8,-16.63,-44.67,-44.99,0,*5F
1484690486.19,8986,4.19,73552.3,-16.63,-44.61,-44.67,0,*5B
1484690487.42,8987,4.19,73552.5,-16.63,-44.67,-44.99,0,*5D
1484690488.66,8988,4.19,73552.0,-16.65,-44.41,-44.67,0,*51
1484690489.9,8989,4.19,73552.8,-16.63,-44.21,-44.53,0,*57
1484690491.13,8990,4.19,73552.5,-16.65,-44.61,-44.79,0,*55
1484690492.36,8991,4.19,73554.5,-16.63,-44.67,-44.87,0,*55
1484690493.59,8992,4.19,73556.0,-16.63,-44.21,-44.53,0,*5D
1484690494.8,8993,4.19,73556.5,-16.63,-44.61,-44.79,0,*50
1484690496.02,8994,4.19,73554.0,-16.63,-44.33,-44.53,0,*58
1484690497.26,8995,4.19,73552.5,-16.63,-44.21,-44.53,0,*5A
1484690498.46,8996,4.19,73558.3,-16.63,-44.41,-44.61,0,*5E
1484690499.69,8997,4.19,73554.5,-16.63,-44.53,-44.67,0,*5A
1484690500.89,8998,4.19,73560.0,-16.63,-44.61,-44.79,0,*5B
1484690502.15,8999,4.19,73552.3,-16.61,-44.53,-44.73,0,*53
1484690503.44,9000,4.19,73554.0,-16.61,-44.73,-44.93,0,*57
1484690504.67,9001,4.19,73552.8,-16.63,-44.53,-44.67,0,*5D
1484690505.87,9002,4.19,73554.8,-16.63,-44.41,-44.61,0,*5B
1484690507.13,9003,4.19,73556.0,-16.61,-44.27,-44.47,0,*5C
1484690508.39,9004,4.19,73558.8,-16.61,-44.53,-44.73,0,*5F
1484690509.65,9005,4.19,73556.3,-16.61,-44.61,-44.93,0,*51
1484690510.91,9006,4.19,73556.8,-16.61,-44.73,-44.79,0,*55
1484690512.17,9007,4.19,73552.5,-16.61,-44.53,-44.73,0,*5C
1484690513.43,9008,4.19,73556.5,-16.61,-44.33,-44.61,0,*56
1484690514.68,9009,4.19,73556.5,-16.61,-44.27,-44.47,0,*56
1484690515.89,9010,4.19,73558.5,-16.63,-44.41,-44.61,0,*58
1484690517.12,9011,4.19,73552.0,-16.61,-44.61,-44.79,0,*50
1484690518.35,9012,4.19,73558.5,-16.61,-44.61,-44.79,0,*53
1484690519.62,9013,4.19,73554.8,-16.61,-44.61,-44.93,0,*56
1484690520.9,9014,4.19,73554.8,-16.61,-44.47,-44.73,0,*5B
1484690522.15,9015,4.19,73558.5,-16.61,-44.47,-44.79,0,*50
1484690523.41,9016,4.19,73558.0,-16.61,-44.53,-44.73,0,*5C
1484690524.65,9017,4.19,73556.8,-16.63,-44.67,-44.87,0,*53
1484690525.88,9018,4.19,73554.5,-16.63,-44.67,-44.87,0,*5C
1484690527.1,9019,4.19,73554.3,-16.63,-44.87,-45.21,0,*5E
1484690528.31,9020,4.19,73554.3,-16.63,-44.99,-45.21,0,*5B
1484690529.53,9021,4.19,73558.5,-16.63,-44.53,-44.87,0,*51
1484690530.76,9022,4.19,73552.8,-16.63,-44.67,-44.99,0,*5A
1484690531.98,9023,4.19,73554.0,-16.63,-44.53,-44.67,0,*5D
1484690533.19,9024,4.19,73554.3,-16.63,-44.61,-44.79,0,*54
1484690534.42,9025,4.19,73554.0,-16.63,-44.33,-44.61,0,*5B
1484690535.65,9026,4.19,73554.5,-16.63,-44.67,-44.87,0,*51
1484690536.85,9027,4.19,73556.3,-16.63,-44.41,-44.61,0,*5C
1484690538.06,9028,4.19,73554.8,-16.63,-44.61,-44.99,0,*56
1484690539.28,9029,4.19,73556.3,-16.63,-44.79,-45.21,0,*5C
1484690540.51,9030,4.19,73556.5,-16.63,-44.67,-44.99,0,*59
1484690541.75,9031,4.19,73556.3,-16.63,-44.79,-45.07,0,*51
1484690543.01,9032,4.19,73552.0,-16.65,-44.67,-44.87,0,*52
1484690544.21,9033,4.19,73554.3,-16.63,-44.61,-44.99,0,*5C
1484690545.44,9034,4.19,73558.0,-16.63,-44.99,-45.07,0,*5A
1484690546.68,9035,4.19,73554.5,-16.63,-44.67,-44.87,0,*53
1484690547.92,9036,4.19,73558.3,-16.65,-44.79,-44.99,0,*56
1484690549.16,9037,4.19,73554.5,-16.65,-44.87,-45.21,0,*54
1484690550.38,9038,4.19,73556.5,-16.63,-44.79,-45.21,0,*5C
1484690551.63,9039,4.19,73552.3,-16.63,-44.67,-45.07,0,*56
1484690552.85,9040,4.19,73554.3,-16.63,-44.87,-45.21,0,*52
1484690554.09,9041,4.19,73554.0,-16.63,-44.79,-45.07,0,*56
1484690555.32,9042,4.19,73556.0,-16.63,-44.67,-44.99,0,*5C
1484690556.55,9043,4.19,73554.0,-16.65,-44.61,-44.99,0,*5D
1484690557.77,9044,4.19,73548.8,-16.63,-44.79,-45.21,0,*57
1484690558.98,9045,4.19,73554.8,-16.63,-44.99,-45.21,0,*58
1484690560.23,9046,4.19,73556.8,-16.65,-44.87,-45.21,0,*52
1484690561.48,9047,4.19,73558.5,-16.65,-44.67,-44.99,0,*5F
1484690562.72,9048,4.19,73556.3,-16.65,-44.61,-44.87,0,*59
1484690563.95,9049,4.19,73556.8,-16.65,-44.79,-44.99,0,*5E
1484690565.2,9050,4.19,73550.5,-16.65,-44.79,-45.21,0,*54
1484690566.43,9051,4.19,73554.0,-16.65,-44.99,-45.41,0,*5D
1484690567.64,9052,4.19,73558.0,-16.63,-44.99,-45.41,0,*58
1484690568.85,9053,4.19,73556.0,-16.63,-44.99,-45.41,0,*59
1484690570.11,9054,4.19,73554.0,-16.65,-44.79,-45.07,0,*54
1484690571.33,9055,4.19,73556.0,-16.63,-44.87,-44.99,0,*54
1484690572.58,9056,4.19,73558.3,-16.65,-44.67,-44.99,0,*5F
1484690573.84,9057,4.19,73554.8,-16.65,-44.79,-45.07,0,*57
1484690575.11,9058,4.19,73558.3,-16.65,-44.87,-45.07,0,*59
1484690576.38,9059,4.19,73554.5,-16.65,-44.67,-45.07,0,*56
1484690577.65,9060,4.19,73558.3,-16.65,-44.79,-45.07,0,*53
1484690578.91,9061,4.19,73554.3,-16.65,-44.67,-44.87,0,*54
1484690580.14,9062,4.19,73558.0,-16.65,-44.79,-44.99,0,*57
1484690581.4,9063,4.19,73552.3,-16.65,-44.79,-45.07,0,*50
1484690582.67,9064,4.19,73556.8,-16.65,-44.87,-45.07,0,*56
1484690583.89,9065,4.19,73552.0,-16.63,-44.87,-45.21,0,*55
1484690585.15,9066,4.19,73556.3,-16.65,-44.79,-45.07,0,*55
1484690586.37,9067,4.19,73554.8,-16.67,-44.79,-45.21,0,*52
1484690587.59,9068,4.19,73558.3,-16.67,-44.87,-45.13,0,*5D
1484690588.86,9069,4.19,73554.5,-16.67,-44.73,-44.93,0,*5E
1484690590.1,9070,4.19,73552.0,-16.67,-44.87,-45.27,0,*53
1484690591.32,9071,4.19,73556.0,-16.67,-44.87,-45.13,0,*55
1484690592.58,9072,4.19,73556.8,-16.67,-44.73,-44.93,0,*54
1484690593.85,9073,4.19,73558.3,-16.67,-44.73,-44.93,0,*55
1484690595.1,9074,4.19,73556.0,-16.67,-44.47,-44.67,0,*5E
1484690596.34,9075,4.19,73558.0,-16.67,-44.61,-44.93,0,*50
1484690597.59,9076,4.19,73556.5,-16.67,-44.87,-45.07,0,*57
1484690598.8,9077,4.19,73558.3,-16.67,-44.87,-45.13,0,*53
1484690600.05,9078,4.19,73558.8,-16.67,-44.87,-45.07,0,*59
1484690601.31,9079,4.19,73556.5,-16.67,-44.73,-45.07,0,*53
1484690602.55,9080,4.19,73556.5,-16.67,-44.47,-44.87,0,*5B
1484690603.79,9081,4.19,73556.0,-16.67,-44.87,-45.07,0,*5F
1484690605.0,9082,4.19,73556.0,-16.67,-44.87,-45.13,0,*59
1484690606.25,9083,4.19,73558.0,-16.67,-44.73,-44.87,0,*5F
1484690607.49,9084,4.19,73554.8,-16.67,-44.87,-45.07,0,*5A
1484690608.75,9085,4.19,73556.8,-16.69,-44.73,-45.13,0,*5B
1484690610.01,9086,4.19,73552.3,-16.67,-45.07,-45.27,0,*53
1484690611.28,9087,4.19,73554.5,-16.67,-44.93,-45.27,0,*5E
1484690612.51,9088,4.19,73554.5,-16.67,-44.93,-45.13,0,*56
1484690613.76,9089,4.19,73554.8,-16.67,-44.87,-44.93,0,*5B
1484690615.03,9090,4.19,73558.3,-16.67,-44.93,-45.27,0,*58
1484690616.32,9091,4.19,73554.8,-16.69,-44.93,-45.27,0,*57
1484690617.55,9092,4.19,73556.3,-16.67,-44.93,-45.13,0,*5D
1484690618.8,9093,4.19,73552.3,-16.67,-44.87,-45.27,0,*5E
1484690620.04,9094,4.19,73556.3,-16.67,-44.87,-45.27,0,*59
1484690621.28,9095,4.19,73558.5,-16.67,-44.73,-45.13,0,*54
1484690622.54,9096,4.19,73554.8,-16.69,-44.87,-45.07,0,*57
1484690623.8,9097,4.19,73556.8,-16.69,-44.93,-45.13,0,*56
1484690625.09,9098,4.19,73556.3,-16.69,-44.93,-45.27,0,*5E
1484690626.36,9099,4.19,73556.8,-16.67,-44.73,-45.07,0,*5D
1484690627.64,9100,4.19,73558.3,-16.69,-44.73,-45.07,0,*52
1484690628.93,9101,4.19,73556.0,-16.69,-44.73,-44.93,0,*5F
1484690630.15,9102,4.19,73558.3,-16.67,-44.87,-45.13,0,*50
1484690631.41,9103,4.19,73558.8,-16.67,-44.73,-44.93,0,*53
1484690632.7,9104,4.19,73552.5,-16.69,-44.73,-45.07,0,*56
1484690633.96,9105,4.19,73550.8,-16.67,-44.67,-44.93,0,*50
1484690635.23,9106,4.19,73552.3,-16.67,-44.73,-44.93,0,*56
1484690636.49,9107,4.19,73556.0,-16.67,-44.47,-44.73,0,*5E
1484690637.72,9108,4.19,73554.3,-16.67,-44.41,-44.67,0,*52
1484690638.98,9109,4.19,73556.3,-16.67,-44.73,-45.07,0,*55
1484690640.27,9110,4.19,73554.3,-16.69,-44.67,-44.93,0,*5A
1484690641.53,9111,4.19,73552.8,-16.69,-44.87,-45.07,0,*59
1484690642.79,9112,4.19,73554.5,-16.69,-44.93,-45.13,0,*5A
1484690644.08,9113,4.19,73552.5,-16.69,-44.67,-44.93,0,*59
1484690645.34,9114,4.19,73552.5,-16.69,-44.67,-44.87,0,*5B
1484690646.6,9115,4.19,73558.3,-16.67,-44.73,-45.27,0,*5A
1484690647.84,9116,4.19,73558.0,-16.67,-44.67,-44.87,0,*57
1484690649.1,9117,4.19,73558.5,-16.69,-44.93,-45.13,0,*5F
1484690650.34,9118,4.19,73558.8,-16.69,-44.87,-45.13,0,*55
1484690651.59,9119,4.19,73554.3,-16.69,-45.07,-45.13,0,*5D
1484690652.85,9120,4.19,73558.0,-16.69,-45.07,-45.13,0,*57
1484690654.14,9121,4.19,73556.8,-16.69,-44.73,-45.07,0,*51
1484690655.38,9122,4.19,73556.8,-16.69,-44.87,-45.13,0,*5C
1484690656.64,9123,4.19,73558.8,-16.67,-44.93,-45.27,0,*51
1484690657.93,9124,4.19,73556.5,-16.69,-44.73,-44.93,0,*58
1484690659.22,9125,4.19,73554.3,-16.69,-44.67,-44.93,0,*5C
1484690660.46,9126,4.19,73552.5,-16.69,-44.87,-45.13,0,*58
1484690661.72,9127,4.19,73554.0,-16.69,-45.07,-45.33,0,*52
1484690662.99,9128,4.19,73556.8,-16.69,-44.87,-45.07,0,*53
1484690664.22,9129,4.19,73556.3,-16.67,-44.93,-45.13,0,*5C
1484690665.51,9130,4.19,73558.8,-16.69,-44.73,-45.07,0,*51
1484690666.78,9131,4.19,73556.5,-16.69,-44.87,-45.27,0,*59
1484690668.06,9132,4.19,73556.5,-16.69,-44.73,-45.07,0,*53
1484690669.3,9133,4.19,73558.0,-16.69,-44.87,-45.13,0,*5C
1484690670.59,9134,4.19,73554.0,-16.69,-44.93,-45.27,0,*59
1484690671.85,9135,4.19,73558.8,-16.69,-45.07,-45.13,0,*53
1484690673.08,9136,4.19,73554.0,-16.69,-44.87,-45.13,0,*59
1484690674.35,9137,4.19,73556.8,-16.73,-44.93,-45.21,0,*57
1484690675.62,9138,4.19,73554.3,-16.69,-44.87,-45.27,0,*50
1484690676.91,9139,4.19,73556.8,-16.69,-45.07,-45.27,0,*58
1484690678.17,9140,4.19,73558.0,-16.73,-44.93,-45.33,0,*54
1484690679.41,9141,4.19,73558.5,-16.73,-44.79,-45.13,0,*53
1484690680.67,9142,4.19,73558.8,-16.73,-44.73,-44.99,0,*59
1484690681.96,9143,4.19,73552.3,-16.73,-44.73,-44.93,0,*52
1484690683.25,9144,4.19,73554.5,-16.73,-44.67,-44.93,0,*50
1484690684.51,9145,4.19,73556.8,-16.73,-44.73,-45.13,0,*5D
1484690685.77,9146,4.19,73558.3,-16.73,-44.73,-44.99,0,*5D
1484690687.01,9147,4.19,73558.0,-16.73,-44.99,-45.21,0,*5A
1484690688.25,9148,4.19,73558.0,-16.73,-44.99,-45.21,0,*55
1484690689.51,9149,4.19,73558.3,-16.73,-44.93,-45.13,0,*5F
1484690690.78,9150,4.19,73556.5,-16.73,-44.93,-45.21,0,*56
1484690692.02,9151,4.19,73558.3,-16.73,-44.79,-45.21,0,*53
1484690693.28,9152,4.19,73558.3,-16.73,-44.93,-45.13,0,*55
1484690694.52,9153,4.19,73556.3,-16.73,-44.99,-45.21,0,*5F
1484690695.75,9154,4.19,73556.8,-16.73,-45.13,-45.33,0,*58
1484690697.02,9155,4.19,73558.0,-16.73,-44.93,-45.21,0,*53
1484690698.28,9156,4.19,73562.0,-16.73,-44.93,-45.13,0,*51
1484690699.52,9157,4.19,73558.0,-16.73,-44.99,-45.33,0,*58
1484690700.78,9158,4.19,73558.5,-16.73,-44.93,-45.13,0,*5F
1484690702.01,9159,4.19,73558.5,-16.73,-44.99,-45.33,0,*56
1484690703.23,9160,4.19,73556.3,-16.75,-44.79,-45.13,0,*56
1484690704.47,9161,4.19,73558.8,-16.73,-44.79,-45.13,0,*51
1484690705.71,9162,4.19,73558.8,-16.73,-44.79,-44.99,0,*51
1484690706.92,9163,4.19,73556.5,-16.75,-44.99,-45.21,0,*5A
1484690708.14,9164,4.19,73558.3,-16.75,-44.99,-45.33,0,*5E
1484690709.35,9165,4.19,73556.3,-16.75,-44.79,-45.13,0,*53
1484690710.59,9166,4.19,73552.8,-16.75,-44.73,-44.99,0,*59
1484690711.83,9167,4.19,73554.3,-16.75,-44.73,-44.99,0,*58
1484690713.1,9168,4.19,73556.3,-16.73,-44.93,-45.21,0,*5D
1484690714.34,9169,4.19,73556.0,-16.73,-44.99,-45.21,0,*56
1484690715.56,9170,4.19,73558.5,-16.75,-44.79,-45.21,0,*56
1484690716.77,9171,4.19,73558.3,-16.75,-44.99,-45.33,0,*5A
1484690718.01,9172,4.19,73562.3,-16.75,-44.93,-45.33,0,*53
1484690719.27,9173,4.19,73554.8,-16.73,-44.93,-45.33,0,*54
1484690720.51,9174,4.19,73558.3,-16.73,-45.13,-45.33,0,*5A
1484690721.73,9175,4.19,73556.8,-16.75,-44.99,-45.21,0,*5D
1484690722.97,9176,4.19,73558.8,-16.75,-44.93,-45.21,0,*54
1484690724.22,9177,4.19,73556.5,-16.73,-44.67,-44.79,0,*54
1484690725.49,9178,4.19,73558.8,-16.75,-44.73,-44.93,0,*5C
1484690726.75,9179,4.19,73554.8,-16.73,-44.67,-44.79,0,*5A
1484690728.01,9180,4.19,73558.5,-16.73,-44.67,-45.13,0,*51
1484690729.24,9181,4.19,73556.8,-16.73,-45.13,-45.33,0,*50
1484690730.45,9182,4.19,73558.8,-16.75,-44.79,-45.13,0,*5A
1484690731.69,9183,4.19,73562.8,-16.73,-45.13,-45.33,0,*52
1484690732.92,9184,4.19,73556.0,-16.73,-45.13,-45.21,0,*56
1484690734.14,9185,4.19,73558.0,-16.75,-44.99,-45.41,0,*54
1484690735.37,9186,4.19,73560.5,-16.73,-45.13,-45.33,0,*57
1484690736.63,9187,4.19,73556.5,-16.73,-44.93,-45.33,0,*5F
1484690737.86,9188,4.19,73554.3,-16.75,-44.79,-45.21,0,*51
1484690739.1,9189,4.19,73556.3,-16.75,-44.93,-45.33,0,*57
1484690740.34,9190,4.19,73558.3,-16.73,-44.79,-45.21,0,*5E
1484690741.6,9191,4.19,73558.5,-16.73,-44.73,-45.13,0,*54
1484690742.84,9192,4.19,73556.3,-16.73,-44.79,-45.13,0,*5D
1484690744.06,9193,4.19,73556.0,-16.75,-44.79,-45.13,0,*5A
1484690745.34,9194,4.19,73554.0,-16.73,-44.67,-44.93,0,*5D
1484690746.58,9195,4.19,73558.0,-16.73,-44.99,-45.21,0,*55
1484690747.8,9196,4.19,73556.0,-16.75,-44.99,-45.21,0,*50
1484690749.05,9197,4.19,73558.0,-16.73,-44.67,-45.13,0,*57
1484690750.27,9198,4.19,73556.3,-16.75,-44.79,-45.13,0,*51
1484690751.54,9199,4.19,73558.5,-16.73,-44.93,-45.21,0,*53
1484690752.75,9200,4.19,73558.0,-16.75,-44.79,-45.13,0,*53
1484690753.99,9201,4.19,73558.5,-16.73,-44.79,-45.13,0,*54
1484690755.2,9202,4.19,73558.5,-16.75,-44.53,-44.79,0,*54
1484690756.49,9203,4.19,73556.0,-16.73,-44.73,-44.93,0,*55
1484690757.73,9204,4.19,73560.8,-16.73,-44.79,-44.99,0,*52
1484690758.97,9205,4.19,73560.5,-16.73,-44.99,-45.33,0,*5C
1484690760.2,9206,4.19,73560.0,-16.73,-45.13,-45.41,0,*59
1484690761.46,9207,4.25,73564.3,-16.69,-45.07,-45.13,0,*51
1484690762.7,9208,4.19,73560.8,-16.75,-44.93,-45.13,0,*5F
1484690763.93,9209,4.19,73558.0,-16.73,-44.99,-45.33,0,*50
1484690765.18,9210,4.19,73556.5,-16.73,-44.79,-45.21,0,*55
1484690766.4,9211,4.19,73558.3,-16.75,-44.79,-44.99,0,*50
1484690767.65,9212,4.19,73556.5,-16.73,-44.93,-45.13,0,*52
1484690768.89,9213,4.19,73562.3,-16.73,-45.13,-45.21,0,*5B
1484690770.11,9214,4.19,73562.5,-16.75,-44.79,-45.33,0,*54
1484690771.35,9215,4.19,73560.0,-16.75,-44.93,-45.21,0,*52
1484690772.62,9216,4.19,73562.3,-16.73,-44.93,-45.21,0,*57
1484690773.85,9217,4.19,73560.0,-16.73,-45.13,-45.33,0,*5C
1484690775.09,9218,4.19,73558.3,-16.73,-44.99,-45.33,0,*50
1484690776.33,9219,4.19,73562.5,-16.73,-44.79,-44.99,0,*5E
1484690777.57,9220,4.19,73556.3,-16.75,-44.73,-45.13,0,*5B
1484690778.8,9221,4.19,73556.5,-16.75,-44.67,-44.79,0,*52
1484690780.02,9222,4.19,73558.0,-16.75,-44.79,-45.13,0,*53
1484690781.28,9223,4.19,73560.5,-16.73,-44.93,-45.33,0,*52
1484690782.49,9224,4.19,73556.8,-16.75,-44.99,-45.33,0,*59
1484690783.73,9225,4.19,73558.3,-16.75,-44.73,-44.99,0,*5D
1484690784.97,9226,4.19,73562.3,-16.73,-44.79,-44.99,0,*52
1484690786.21,9227,4.19,73562.5,-16.75,-44.73,-45.13,0,*5C
1484690787.45,9228,4.19,73562.0,-16.73,-44.79,-45.13,0,*5F
1484690788.66,9229,4.19,73558.5,-16.75,-44.99,-45.21,0,*57
1484690789.91,9230,4.19,73560.5,-16.75,-44.93,-45.21,0,*55
1484690791.15,9231,4.19,73560.8,-16.73,-44.79,-45.21,0,*56
1484690792.41,9232,4.19,73556.3,-16.73,-44.73,-45.13,0,*5E
1484690793.63,9233,4.19,73556.5,-16.75,-44.79,-45.13,0,*53
1484690794.86,9234,4.19,73558.8,-16.73,-44.99,-45.33,0,*5E
1484690796.1,9235,4.19,73562.3,-16.73,-45.13,-45.41,0,*59
1484690797.31,9236,4.19,73560.0,-16.75,-44.99,-45.41,0,*5F
1484690798.55,9237,4.25,73562.8,-16.75,-44.93,-45.33,0,*51
1484690799.76,9238,4.19,73558.0,-16.75,-45.13,-45.33,0,*57
1484690800.97,9239,4.19,73560.0,-16.75,-44.99,-45.33,0,*55
1484690802.19,9240,4.19,73560.0,-16.75,-45.13,-45.21,0,*5B
1484690803.4,9241,4.19,73556.8,-16.75,-44.99,-45.41,0,*5F
1484690804.62,9242,4.19,73556.0,-16.75,-45.13,-45.53,0,*5C
1484690805.86,9243,4.19,73562.5,-16.75,-44.93,-45.21,0,*51
1484690807.12,9244,4.19,73558.8,-16.73,-44.93,-45.21,0,*50
1484690808.37,9245,4.19,73558.8,-16.75,-44.73,-45.21,0,*59
1484690809.63,9246,4.19,73562.3,-16.73,-44.93,-45.21,0,*52
1484690810.88,9247,4.19,73558.5,-16.75,-44.93,-45.21,0,*55
1484690812.09,9248,4.19,73558.3,-16.75,-44.99,-45.33,0,*53
1484690813.35,9249,4.19,73562.3,-16.77,-45.07,-45.41,0,*53
1484690814.57,9250,4.19,73556.8,-16.75,-44.99,-45.33,0,*5A
1484690815.78,9251,4.19,73562.5,-16.75,-44.99,-45.33,0,*5B
1484690817.02,9252,4.19,73560.5,-16.73,-45.13,-45.33,0,*5D
1484690818.23,9253,4.19,73556.8,-16.75,-44.99,-45.41,0,*5C
1484690819.5,9254,4.19,73562.0,-16.77,-44.87,-45.27,0,*56
1484690820.77,9255,4.19,73560.8,-16.77,-45.07,-45.41,0,*5E
1484690822.03,9256,4.19,73558.3,-16.77,-45.21,-45.47,0,*5F
1484690823.3,9257,4.19,73556.5,-16.77,-44.87,-45.27,0,*55
1484690824.57,9258,4.19,73562.0,-16.77,-45.07,-45.41,0,*53
1484690825.82,9259,4.19,73562.8,-16.77,-44.87,-45.21,0,*5D
1484690827.05,9260,4.19,73558.3,-16.79,-44.61,-45.07,0,*55
1484690828.26,9261,4.19,73560.0,-16.75,-44.79,-45.13,0,*54
1484690829.5,9262,4.19,73560.3,-16.75,-44.73,-44.79,0,*50
1484690830.74,9263,4.19,73560.5,-16.75,-44.73,-44.99,0,*5F
1484690831.98,9264,4.19,73556.5,-16.75,-44.73,-45.13,0,*5B
1484690833.19,9265,4.19,73560.8,-16.75,-44.79,-45.13,0,*50
1484690834.46,9266,4.19,73562.0,-16.75,-44.73,-44.93,0,*50
1484690835.7,9267,4.19,73558.0,-16.75,-44.93,-45.13,0,*56
1484690836.97,9268,4.19,73560.3,-16.77,-44.87,-45.27,0,*59
1484690838.19,9269,4.19,73560.3,-16.75,-44.79,-45.21,0,*5D
1484690839.46,9270,4.19,73556.3,-16.77,-44.79,-45.07,0,*53
1484690840.72,9271,4.19,73562.3,-16.77,-44.99,-45.27,0,*5E
1484690841.97,9272,4.19,73560.0,-16.77,-44.87,-45.21,0,*54
1484690843.19,9273,4.19,73562.5,-16.75,-44.79,-45.21,0,*56
1484690844.44,9274,4.19,73560.5,-16.75,-44.53,-44.93,0,*51
1484690845.68,9275,4.19,73562.3,-16.75,-44.73,-45.21,0,*5A
1484690846.9,9276,4.19,73562.3,-16.75,-44.99,-45.21,0,*5D
1484690848.14,9277,4.19,73562.0,-16.75,-44.93,-45.21,0,*56
1484690849.38,9278,4.19,73558.5,-16.75,-44.93,-45.33,0,*5A
1484690850.67,9279,4.19,73560.8,-16.77,-45.07,-45.27,0,*50
1484690851.91,9280,4.19,73560.3,-16.77,-44.99,-45.41,0,*50
1484690853.2,9281,4.19,73562.0,-16.77,-45.07,-45.47,0,*51
1484690854.46,9282,4.19,73558.0,-16.77,-44.99,-45.27,0,*52
1484690855.72,9283,4.19,73562.5,-16.77,-45.07,-45.41,0,*55
1484690856.97,9284,4.19,73562.5,-16.77,-44.79,-44.99,0,*5E
1484690858.18,9285,4.19,73558.8,-16.75,-44.79,-45.13,0,*5E
1484690859.45,9286,4.19,73560.8,-16.77,-44.79,-45.07,0,*5A
1484690860.67,9287,4.19,73556.8,-16.75,-44.87,-45.21,0,*5C
1484690861.92,9288,4.19,73560.8,-16.77,-44.79,-45.21,0,*50
1484690863.2,9289,4.19,73560.0,-16.77,-44.87,-45.27,0,*56
1484690864.44,9290,4.19,73562.0,-16.77,-44.87,-45.21,0,*58
1484690865.69,9291,4.19,73560.0,-16.77,-44.79,-45.21,0,*58
1484690866.93,9292,4.19,73562.8,-16.77,-44.99,-45.41,0,*53
1484690868.15,9293,4.19,73562.0,-16.79,-44.79,-45.21,0,*54
1484690869.42,9294,4.19,73560.8,-16.79,-44.73,-45.07,0,*5D
1484690870.67,9295,4.19,73560.8,-16.77,-44.87,-45.21,0,*5D
1484690871.94,9296,4.19,73562.8,-16.77,-44.87,-45.27,0,*58
1484690873.23,9297,4.19,73562.3,-16.77,-44.73,-45.07,0,*50
1484690874.5,9298,4.19,73560.5,-16.77,-44.79,-45.07,0,*55
1484690875.71,9299,4.19,73562.5,-16.75,-44.79,-44.99,0,*50
1484690877.0,9300,4.19,73560.0,-16.77,-45.07,-45.27,0,*5F
1484690878.27,9301,4.19,73562.0,-16.77,-44.87,-45.07,0,*55
1484690879.52,9302,4.19,73558.5,-16.77,-44.87,-45.21,0,*52
1484690880.79,9303,4.19,73558.3,-16.77,-44.87,-45.07,0,*57
1484690882.06,9304,4.19,73558.3,-16.77,-44.99,-45.27,0,*5D
1484690883.3,9305,4.19,73560.5,-16.77,-44.87,-45.21,0,*55
1484690884.57,9306,4.19,73562.0,-16.77,-44.99,-45.27,0,*5F
1484690885.81,9307,4.19,73562.0,-16.77,-44.79,-44.99,0,*54
1484690887.06,9308,4.25,73564.8,-16.77,-44.87,-45.21,0,*58
1484690888.33,9309,4.19,73562.3,-16.77,-44.87,-45.07,0,*5D
1484690889.58,9310,4.19,73560.3,-16.77,-44.87,-45.21,0,*51
1484690890.82,9311,4.19,73562.0,-16.77,-45.21,-45.41,0,*5B
1484690892.09,9312,4.19,73562.0,-16.79,-45.07,-45.27,0,*52
1484690893.3,9313,4.19,73558.0,-16.79,-44.79,-44.99,0,*5F
1484690894.57,9314,4.19,73562.5,-16.77,-44.79,-45.07,0,*50
1484690895.81,9315,4.19,73562.5,-16.77,-44.99,-45.21,0,*5B
1484690897.06,9316,4.19,73558.0,-16.77,-44.99,-45.21,0,*58
1484690898.3,9317,4.19,73562.8,-16.79,-44.99,-45.27,0,*51
1484690899.54,9318,4.19,73560.5,-16.79,-45.07,-45.41,0,*58
1484690900.8,9319,4.19,73560.5,-16.79,-45.07,-45.27,0,*59
1484690902.05,9320,4.19,73562.3,-16.79,-44.87,-45.27,0,*5A
1484690903.27,9321,4.19,73560.0,-16.79,-45.21,-45.61,0,*54
1484690904.5,9322,4.19,73562.0,-16.79,-45.21,-45.47,0,*53
1484690905.74,9323,4.19,73562.3,-16.79,-45.21,-45.47,0,*52